Terug naar catalogus

METEOR 2-11 DEB

ActiefPO
NORAD 40707·DEBRIS·🇷🇺 Russia

Gelanceerd Jul 5, 1984 vanaf Plesetsk Cosmodrome

Loading…

Volgende Passages (komende 24 uur)

TLE

VersSource: Space-Track

Epoch: Sep 13, 2026, 19:40 UTC

1 40707U 84072J   26256.81957817  .00001116  00000-0  77630-3 0  9991
2 40707  82.5199 293.9071 0013171 136.9394 223.2807 13.97944708116568

Volg METEOR 2-11 DEB in realtime met AllMySat

Download on the App Store